This demonstration page uses our WeatherBlox Daily Observations layout. Learn more.

Left ArrowRight Arrow

Hourly Observations for August 7, 2019

Temp ( °F °C ) Dew Point ( °F °C ) Humidity (%) Winds ( mph kmh ) Pressure ( in mb ) Visibility ( mi km ) Precip ( " mm )
12:53 am 00:53 Clear 87 30.6 59 15 39 39 SE 10 17 29.80 1009 10 16 0.00 0.00
1:53 am 01:53 Clear 86 30 60 15.6 42 42 SE 9 15 29.80 1009 10 16 0.00 0.00
2:53 am 02:53 Clear 83 28.3 60 15.6 46 46 SE 9 15 29.79 1009 10 16 0.00 0.00
3:53 am 03:53 Clear 82 27.8 60 15.6 47 47 SE 9 15 29.78 1008 10 16 0.00 0.00
4:53 am 04:53 Clear 81 27.2 60 15.6 49 49 SE 7 11 29.80 1009 10 16 0.00 0.00
5:53 am 05:53 Clear 80 26.7 60 15.6 51 51 SE 9 15 29.80 1009 10 16 0.00 0.00
6:53 am 06:53 Clear 80 26.7 60 15.6 51 51 SE 10 17 29.81 1010 10 16 0.00 0.00
7:53 am 07:53 Sunny 80 26.7 60 15.6 51 51 SE 9 15 29.82 1010 10 16 0.00 0.00
8:53 am 08:53 Sunny 84 28.9 61 16.1 46 46 SE 12 19 29.82 1010 10 16 0.00 0.00
9:53 am 09:53 Sunny 88 31.1 61 16.1 40 40 SSE 8 13 29.83 1010 10 16 0.00 0.00
10:53 am 10:53 Partly Cloudy 93 33.9 60 15.6 33 33 S 3 6 29.82 1010 10 16 0.00 0.00
11:53 am 11:53 Sunny 97 36.1 58 14.4 27 27 VRB 5 7 29.81 1010 10 16 0.00 0.00
12:53 pm 12:53 Sunny 100 37.8 55 12.8 22 22 ESE 9 15 29.80 1009 10 16 0.00 0.00
1:53 pm 13:53 Sunny 103 39.4 54 12.2 20 20 VRB 7 11 29.77 1008 10 16 0.00 0.00
2:53 pm 14:53 Mostly Sunny 100 37.8 52 11.1 20 20 VRB 6 9 29.75 1007 10 16 0.00 0.00
3:53 pm 15:53 Sunny 103 39.4 52 11.1 18 18 VRB 3 6 29.73 1007 10 16 0.00 0.00
4:53 pm 16:53 Mostly Cloudy 105 40.6 53 11.7 18 18 ESE 17 28 29.70 1006 10 16 0.00 0.00
5:53 pm 17:53 Partly Cloudy 104 40 52 11.1 18 18 ESE 16 26 29.69 1005 10 16 0.00 0.00
6:53 pm 18:53 Sunny 102 38.9 53 11.7 19 19 SSE 15 24 29.68 1005 10 16 0.00 0.00
7:53 pm 19:53 Sunny 100 37.8 53 11.7 21 21 SE 14 22 29.68 1005 10 16 0.00 0.00
8:53 pm 20:53 Clear 97 36.1 53 11.7 23 23 SE 13 20 29.69 1005 10 16 0.00 0.00
9:53 pm 21:53 Clear 94 34.4 55 12.8 27 27 SE 10 17 29.71 1006 10 16 0.00 0.00
10:53 pm 22:53 Clear 92 33.3 56 13.3 30 30 SE 13 20 29.74 1007 10 16 0.00 0.00
11:53 pm 23:53 Clear 90 32.2 57 13.9 33 33 SSE 15 24 29.75 1007 10 16 0.00 0.00

Powered by AerisWeather